TimePDT,TemperatureF,Dew PointF,Humidity,Sea Level PressureIn,VisibilityMPH,Wind Direction,Wind SpeedMPH,Gust SpeedMPH,PrecipitationIn,Events,Conditions,WindDirDegrees,DateUTC
12:53 AM,26.1,16.0,66,30.37,10.0,Calm,Calm,-,N/A,,Clear,0,2012-10-06 07:53:00
1:53 AM,25.0,18.0,75,30.38,10.0,NNE,3.5,-,N/A,,Clear,20,2012-10-06 08:53:00
2:53 AM,21.0,15.1,78,30.38,10.0,Calm,Calm,-,N/A,,Clear,0,2012-10-06 09:53:00
3:53 AM,25.0,17.1,72,30.38,10.0,NNW,3.5,-,N/A,,Clear,330,2012-10-06 10:53:00
4:53 AM,23.0,17.1,78,30.38,10.0,Calm,Calm,-,N/A,,Clear,0,2012-10-06 11:53:00
5:53 AM,19.9,15.1,81,30.40,10.0,Calm,Calm,-,N/A,,Clear,0,2012-10-06 12:53:00
6:53 AM,19.0,15.1,85,30.43,10.0,Calm,Calm,-,N/A,,Clear,0,2012-10-06 13:53:00
7:53 AM,28.9,19.9,69,30.43,10.0,Calm,Calm,-,N/A,,Clear,0,2012-10-06 14:53:00
8:53 AM,37.9,24.1,57,30.43,10.0,Calm,Calm,-,N/A,,Clear,0,2012-10-06 15:53:00
9:53 AM,45.0,26.1,48,30.42,10.0,Calm,Calm,-,N/A,,Clear,0,2012-10-06 16:53:00
10:53 AM,51.1,25.0,36,30.40,10.0,Variable,4.6,-,N/A,,Clear,0,2012-10-06 17:53:00
11:53 AM,54.0,25.0,33,30.38,10.0,South,4.6,-,N/A,,Clear,180,2012-10-06 18:53:00
12:53 PM,57.0,23.0,27,30.35,10.0,Calm,Calm,-,N/A,,Clear,0,2012-10-06 19:53:00
1:53 PM,59.0,24.1,26,30.33,10.0,South,5.8,-,N/A,,Clear,170,2012-10-06 20:53:00
2:53 PM,61.0,21.9,22,30.32,10.0,Calm,Calm,-,N/A,,Clear,0,2012-10-06 21:53:00
3:53 PM,62.1,21.9,21,30.29,10.0,South,3.5,-,N/A,,Clear,170,2012-10-06 22:53:00
4:53 PM,62.1,21.0,21,30.27,9.0,Calm,Calm,-,N/A,,Clear,0,2012-10-06 23:53:00
5:53 PM,59.0,21.9,24,30.27,10.0,Calm,Calm,-,N/A,,Clear,0,2012-10-07 00:53:00
6:53 PM,46.9,23.0,39,30.29,10.0,Calm,Calm,-,N/A,,Clear,0,2012-10-07 01:53:00
7:53 PM,37.0,19.9,50,30.28,10.0,NNW,3.5,-,N/A,,Clear,330,2012-10-07 02:53:00
8:53 PM,37.9,21.9,53,30.26,10.0,Calm,Calm,-,N/A,,Clear,0,2012-10-07 03:53:00
9:53 PM,35.1,21.9,59,30.26,10.0,Calm,Calm,-,N/A,,Clear,0,2012-10-07 04:53:00
10:53 PM,30.0,19.0,64,30.25,10.0,Calm,Calm,-,N/A,,Clear,0,2012-10-07 05:53:00
11:53 PM,28.0,19.0,69,30.25,10.0,NW,4.6,-,N/A,,Clear,320,2012-10-07 06:53:00